Regional Weather Roundup
Issued by NWS

Home | Current Version | Previous Version | Text Only | Print | Product List | Glossary On
Versions: 1 2 3 4 5 6 7 8 9 10 11 12 13 14 15 16 17 18 19 20 21 22 23 24 25 26 27 28 29 30 31 32 33 34 35 36 37 38 39 40 41 42 43 44 45 46 47 48 49 50
000
ASUS43 KDTX 242101
RWRMI
MICHIGAN HOURLY REGIONAL WEATHER ROUNDUP
NATIONAL WEATHER SERVICE DETROIT/PONTIAC MI
500 PM EDT FRI OCT 24 2014

NOTE: "FAIR" INDICATES FEW OR NO CLOUDS BELOW 12,000 FEET WITH NO
SIGNIFICANT WEATHER AND/OR OBSTRUCTION TO VISIBILITY.

MIZ047>049-052>055-059>063-066>070-074>076-081>083-242200-
SOUTHEAST LOWER MICHIGAN

CITY           SKY/WX    TMP DP  RH WIND       PRES   REMARKS
ADRIAN         CLOUDY    58  46  64 SW8       30.00F
ALMA           CLOUDY    61  49  65 W7        29.95F
ANN ARBOR      CLOUDY    58  43  57 SW9       29.99S
BAD AXE        CLOUDY    59  48  66 W6        29.95F
CARO           CLOUDY    59  47  64 W9        29.95F
DETROIT CITY   MOSUNNY   63  44  50 SW13      29.97F
DETROIT        CLOUDY    59  44  57 SW12      29.99S
FLINT          CLOUDY    60  48  64 SW7       29.98S
GROSSE ILE     CLOUDY    61  45  55 SW7       29.98S
HILLSDALE      PTSUNNY   59  47  63 S3        29.99F
HOWELL         CLOUDY    58  47  65 SW5       29.98S

CITY           SKY/WX    TMP DP  RH WIND       PRES   REMARKS
JACKSON        PTSUNNY   59  47  64 SW8       29.98F
LAMBERTVILLE   CLOUDY    61  45  55 W5        30.00S
LANSING        CLOUDY    60  46  59 W10       29.98S
LAPEER         FAIR      59  45  60 W8        29.97F
MASON          CLOUDY    60  47  62 SW6       29.97F
MONROE         CLOUDY    61  46  59 W10       29.99R
MT. CLEMENS    MOSUNNY   62  44  51 W6        29.94F
PONTIAC        CLOUDY    59  44  57 SW10      29.97S
PORT HOPE        N/A     53  48  83 CALM      29.94F
PORT HURON     PTSUNNY   59  45  58 SW3       29.97S
TRI CITIES     CLOUDY    60  49  66 SW6       29.97S
TROY           MOSUNNY   62  42  47 SW10      29.99S
SAGINAW HB     CLOUDY    61  46  59 SW7       29.96S
$$
MIZ043>046-050>051-056>058-064>065-071>073-077>080-242200-
SOUTHWEST LOWER MICHIGAN

CITY           SKY/WX    TMP DP  RH WIND       PRES   REMARKS
BATTLE CREEK   PTSUNNY   63  46  54 W12       29.98F
BENTON HARBOR  SUNNY     58  49  72 W8        29.98F
BIG RAPIDS     CLOUDY    55  53  94 SW6       29.95F
COLDWATER      PTSUNNY   61  50  67 SW6       29.98F
FREMONT        CLOUDY    53  50  88 SW8       29.97S
HOLLAND        MOSUNNY   60  50  69 SW7       29.99F
GRAND RAPIDS   PTSUNNY   61  50  67 W10       29.98F
IONIA          CLOUDY    60  49  68 W7        29.96F
KALAMAZOO      PTSUNNY   63  48  58 VRB7      29.98F
LUDINGTON      CLOUDY    52  50  93 S7        29.96F FOG
MARSHALL       PTSUNNY   59  48  67 SW6       29.97F
MOUNT PLEASANT PTSUNNY   58  50  74 NW3       29.95F
MUSKEGON       CLOUDY    55  49  80 SW9       29.98S
SOUTH HAVEN    SUNNY     60  51  74 W5        29.98F
$$
MIZ016>042-242200-
NORTHERN LOWER MICHIGAN

CITY           SKY/WX    TMP DP  RH WIND       PRES   REMARKS
ALPENA         CLOUDY    56  47  71 W6        29.93S
BEAVER ISLAND  CLOUDY    52  48  88 SW10      29.93R
BELLAIRE       CLOUDY    54  49  83 S3        29.94S
CADILLAC       CLOUDY    52  49  89 W7        29.94S
CHARLEVOIX     CLOUDY    54  50  87 SW3       29.95S
FRANKFORT      CLOUDY    51  47  84 SW9       29.95S
GAYLORD        CLOUDY    51  47  86 SW7       29.93F
GRAYLING       CLOUDY    54  51  88 W5        29.95S
HARBOR SPRINGS CLOUDY    54  49  83 W3        29.93R
HOUGHTON LAKE  CLOUDY    52  49  89 W6        29.95F FOG
MANISTEE       CLOUDY    52  46  82 S5        29.96S
OSCODA         CLOUDY    55  47  76 W10       29.94S
PELLSTON       CLOUDY    54  47  77 W7        29.93S
ROGERS CITY    CLOUDY    52  50  93 CALM      29.94S
TRAVERSE CITY  CLOUDY    55  48  77 W5        29.93S
$$
MIZ007>008-015-242200-
EASTERN UPPER MICHIGAN

CITY           SKY/WX    TMP DP  RH WIND       PRES   REMARKS
KINROSS        CLOUDY    54  48  82 SW7       29.90S
MACKINAC ISLAN CLOUDY    51  48  89 SW8G16    29.92S
NEWBERRY       CLOUDY    49  47  91 SW10G22   29.90R
S. S. MARIE    CLOUDY    53  46  77 S7        29.89F
MUNISING         N/A     58  46  64 S12       29.85S
$$
MIZ004>006-011>014-085-242200-
CENTRAL UPPER MICHIGAN

CITY           SKY/WX    TMP DP  RH WIND       PRES   REMARKS
MANISTIQUE     CLOUDY    49  47  92 S8        29.90S
ESCANABA       CLOUDY    52  46  82 S9        29.89F
MENOMINEE      MOSUNNY   54  46  76 W3        29.90F
SAWYER-GWINN   SUNNY     57  48  72 S10       29.85F
$$
MIZ001>003-009>011-084-242200-
WESTERN UPPER MICHIGAN

CITY           SKY/WX    TMP DP  RH WIND       PRES   REMARKS
IRON MOUNTAIN  SUNNY     62  49  62 S8        29.85F
HOUGHTON       PTSUNNY   67  36  31 SW10      29.77F
COPPER HARBOR    N/A     57  48  72 SW8       29.76F
IRONWOOD       SUNNY     66  48  52 S15G22    29.76F
$$

ABBREVIATIONS USED IN REMARKS
   TC - TEMPERATURE IN CELSIUS
  WCI - WIND CHILL INDEX
   HX - HEAT INDEX
  VSB - VISIBILITY




USA.gov is the U.S. government's official web portal to all federal, state and local government web resources and services.